[[{"header":{"parameterUnit":"m.s-1","parameterCategory":1,"la1":30.2992,"la2":30.254,"lo1":-89.0895,"lo2":-89.0443,"dy":0.0025,"dx":0.0025,"nx":19,"ny":19,"refTime":"2026-04-12T21:00:00:Z","depth":0,"parameterNumber":2,"parameterNumberName":"U-component_of_WINDS"},"data":[0,0,0,-2.7,-2.7002,-2.7073,-2.7073,-2.7163,-2.7164,0,0,0,0,0,0,0,0,0,0,0,-2.6978,-2.6979,-2.7,-2.7002,-2.7073,-2.7073,-2.7163,-2.7164,0,0,0,0,0,0,0,0,0,0,0,-2.6978,-2.6979,-2.6979,-2.7002,-2.7073,-2.7073,-2.7162,-2.7109,0,0,0,0,0,0,0,0,0,0,-2.704,-2.7019,-2.6978,-2.6979,-2.7003,-2.7073,-2.7074,-2.7107,-2.7113,-2.713,0,-2.7145,0,-2.7156,-2.7169,-2.717,0,0,0,-2.7002,-2.7014,-2.7034,-2.6979,-2.7003,-2.7073,-2.7041,-2.711,-2.7117,-2.7137,-2.7146,-2.715,-2.7157,-2.717,-2.717,-2.7268,-2.7269,0,0,-2.6998,-2.699,-2.703,-2.7038,-2.7028,-2.7039,-2.7043,-2.7114,-2.7123,-2.7147,-2.7152,-2.7159,-2.7171,-2.7171,-2.7268,-2.7268,0,0,0,-2.6987,-2.6988,-2.7006,-2.7035,-2.7048,-2.7041,-2.7046,-2.712,-2.7127,-2.7153,-2.716,-2.7171,-2.7172,-2.7267,-2.7268,-2.7281,0,0,0,-2.6984,-2.6981,-2.7004,-2.7,-2.7046,-2.7085,-2.705,-2.7122,-2.713,-2.7159,-2.7171,-2.7173,-2.7267,-2.7268,-2.728,-2.7288,0,0,0,-2.6974,-2.698,-2.699,-2.6999,-2.703,-2.7084,-2.7095,-2.7124,-2.7134,-2.717,-2.7173,-2.7267,-2.7268,-2.7279,-2.7286,-2.7311,0,0,0,-2.696,-2.7,-2.699,-2.7037,-2.7029,-2.7092,-2.7094,-2.7141,-2.7173,-2.7172,-2.7267,-2.7268,-2.7278,-2.7285,-2.731,-2.733,-2.7338,0,0,-2.7006,-2.7006,-2.7034,-2.7027,-2.7089,-2.7081,-2.7146,-2.7183,-2.7193,-2.7243,-2.7245,-2.728,-2.7286,-2.7311,-2.7387,-2.7393,0,0,0,-2.7046,-2.7067,-2.7085,-2.7115,-2.7145,-2.7171,-2.7199,-2.7213,-2.7255,-2.7217,-2.7297,-2.73,-2.7315,-2.7325,-2.7331,-2.7344,-2.7272,-2.7272,-2.7272,-2.7099,-2.7111,-2.716,-2.718,-2.721,-2.7239,-2.7263,-2.7287,-2.729,-2.7309,-2.7323,-2.7368,-2.7379,-2.7383,-2.7397,-2.7335,-2.7336,-2.7336,-2.7336,-2.7168,-2.7198,-2.7202,-2.725,-2.7262,-2.7303,-2.7332,-2.7333,-2.7372,-2.7358,-2.7371,-2.7354,-2.739,-2.7402,-2.7337,-2.7337,-2.7336,-2.7336,-2.7336,-2.7203,-2.722,-2.7236,-2.7282,-2.7315,-2.7335,-2.7372,-2.7382,-2.7392,-2.7406,-2.7421,-2.7421,-2.7422,-2.7413,-2.7413,-2.7413,-2.7413,-2.7413,-2.7413,-2.7233,-2.7251,-2.7282,-2.7317,-2.7338,-2.7366,-2.7396,-2.7417,-2.7442,-2.7447,-2.7447,-2.7448,-2.7391,-2.7376,-2.7416,-2.7415,-2.7415,-2.7415,-2.7415,-2.7296,-2.7284,-2.7331,-2.7352,-2.7394,-2.7426,-2.7439,-2.748,-2.7499,-2.7517,-2.7516,-2.7472,-2.7472,-2.7468,-2.7456,-2.7513,-2.7513,-2.7513,-2.7513,-2.7326,-2.7327,-2.7377,-2.741,-2.7443,-2.746,-2.7512,-2.7536,-2.7558,-2.757,-2.7564,-2.7548,-2.7544,-2.7546,-2.754,-2.7529,-2.7604,-2.7604,-2.7604,-2.7365,-2.737,-2.7413,-2.7435,-2.7468,-2.7497,-2.7546,-2.7583,-2.7606,-2.7608,-2.758,-2.7576,-2.7552,-2.7543,-2.7543,-2.7534,-2.7513,0,0]},{"header":{"parameterUnit":"m.s-1","parameterCategory":1,"la1":30.2992,"la2":30.254,"lo1":-89.0895,"lo2":-89.0443,"dy":0.0025,"dx":0.0025,"nx":19,"ny":19,"refTime":"2026-04-12T21:00:00:Z","depth":0,"parameterNumber":3,"parameterNumberName":"V-component_of_WINDS"},"data":[0,0,0,4.3506,4.3506,4.3513,4.3513,4.3528,4.3529,0,0,0,0,0,0,0,0,0,0,0,4.3509,4.3509,4.3506,4.3507,4.3513,4.3513,4.3528,4.3529,0,0,0,0,0,0,0,0,0,0,0,4.3509,4.3509,4.3509,4.3507,4.3513,4.3513,4.3528,4.3521,0,0,0,0,0,0,0,0,0,0,4.3513,4.352,4.3509,4.3509,4.3507,4.3513,4.3513,4.352,4.3521,4.3528,0,4.3537,0,4.3533,4.353,4.353,0,0,0,4.3503,4.3519,4.3517,4.3509,4.3507,4.3513,4.3509,4.3521,4.3522,4.353,4.3537,4.3537,4.3533,4.353,4.353,4.3589,4.359,0,0,4.3502,4.3512,4.3516,4.3518,4.3518,4.3509,4.3509,4.3521,4.3529,4.3537,4.3537,4.3534,4.353,4.3531,4.3589,4.3589,0,0,0,4.3504,4.3512,4.3509,4.3518,4.3518,4.3509,4.351,4.3528,4.3527,4.3538,4.3534,4.3531,4.3531,4.3588,4.3589,4.3621,0,0,0,4.3503,4.3513,4.3509,4.3515,4.3518,4.3524,4.3517,4.3526,4.3527,4.3534,4.3531,4.3531,4.3588,4.3588,4.3619,4.3634,0,0,0,4.3507,4.3513,4.3516,4.3516,4.3519,4.3523,4.3522,4.3526,4.3525,4.353,4.3531,4.3587,4.3588,4.3618,4.3631,4.3654,0,0,0,4.3512,4.3542,4.3516,4.3549,4.3519,4.3544,4.3522,4.3539,4.3548,4.3531,4.3588,4.3589,4.3617,4.363,4.3652,4.3674,4.3684,0,0,4.3555,4.3548,4.3566,4.3543,4.3576,4.3542,4.3579,4.3576,4.3567,4.3582,4.3583,4.362,4.3631,4.3653,4.3739,4.3747,0,0,0,4.3583,4.3597,4.3603,4.3613,4.3614,4.3615,4.3607,4.3607,4.362,4.3577,4.3634,4.364,4.3653,4.3663,4.367,4.368,4.3594,4.3594,4.3594,4.3656,4.3646,4.3676,4.3667,4.3677,4.367,4.3677,4.3675,4.3659,4.3673,4.3677,4.373,4.3743,4.3748,4.3759,4.3688,4.3688,4.3689,4.3689,4.3718,4.3735,4.3718,4.3741,4.373,4.3749,4.3745,4.3734,4.375,4.3726,4.3736,4.371,4.3757,4.3766,4.3691,4.3691,4.369,4.369,4.369,4.3764,4.377,4.3772,4.3787,4.38,4.379,4.3808,4.3797,4.3786,4.3797,4.3801,4.38,4.3798,4.38,4.38,4.38,4.38,4.38,4.3801,4.381,4.3811,4.3828,4.3834,4.3841,4.3848,4.3844,4.385,4.3854,4.3844,4.3844,4.3828,4.3764,4.3748,4.3803,4.3803,4.3802,4.3802,4.3802,4.3875,4.386,4.3886,4.3893,4.3902,4.3916,4.3904,4.3917,4.3921,4.393,4.3913,4.3868,4.3859,4.3853,4.384,4.3915,4.3915,4.3915,4.3915,4.3914,4.391,4.3935,4.3948,4.3959,4.3951,4.3982,4.3981,4.3976,4.3978,4.3966,4.3948,4.3943,4.3936,4.3929,4.3916,4.4009,4.4009,4.401,4.3954,4.3951,4.3979,4.3977,4.3983,4.399,4.4019,4.4034,4.4025,4.4013,4.3979,4.3975,4.3946,4.3937,4.3921,4.391,4.3887,0,0]}]]